Wind_Speed
9 8 8 8 8 8 7 6 6 6 6 4 3 3 3 4 4 4 5 5 3 3 3 2 2 2 2 1 1 0 1 1 2 2 2 3 3 3 4 4 4 4 3 2
10 10 10 10 9 9 8 8 8 8 8 7 5 5 5 5 5 4 5 6 5 4 4 4 3 3 3 2 2 2 2 2 2 2 3 3 4 4 4 3 4 4 3 3
12 12 12 11 10 10 10 10 10 10 10 9 7 6 6 6 6 7 7 7 7 6 6 6 5 5 5 4 4 4 3 4 4 4 4 4 4 5 5 5 4 4 4 4
15 14 13 12 12 11 11 12 11 11 10 10 9 8 8 8 8 8 9 8 8 7 8 7 7 7 6 6 6 6 5 5 5 6 6 6 6 6 7 6 6 5 6 6
16 15 14 14 13 13 13 13 12 13 12 11 11 10 10 10 10 9 10 10 9 8 8 8 8 8 9 8 8 8 7 7 7 7 7 7 7 8 8 7 7 7 7 7
17 16 15 15 15 15 14 13 13 12 11 12 12 11 10 11 11 10 10 10 10 9 9 10 10 10 10 10 10 10 9 9 9 9 8 9 9 9 9 9 9 9 9 9
16 17 17 16 17 16 14 12 11 11 11 12 12 11 12 12 11 11 11 12 11 11 11 11 12 12 12 12 12 11 11 11 11 11 10 10 10 11 11 11 11 11 10 11
16 17 17 17 17 17 15 13 12 11 11 12 13 12 12 12 12 12 12 12 13 13 12 12 12 13 14 14 14 14 13 13 13 12 12 12 12 12 13 13 13 13 13 13
17 17 17 18 18 17 16 15 14 14 13 13 13 13 13 13 13 13 12 12 13 14 13 13 12 13 14 15 15 15 15 14 14 15 14 14 14 14 15 15 15 15 15 15
19 18 18 19 19 18 18 17 16 14 13 13 13 13 13 14 14 14 14 14 15 15 14 14 14 14 15 15 15 16 16 16 16 16 16 16 17 17 17 17 17 17 18 17
19 19 19 20 20 18 18 18 17 16 16 14 14 14 15 15 14 15 15 15 15 15 16 17 17 17 17 16 16 16 16 16 17 18 19 19 18 19 19 19 19 19 19 20
20 19 19 19 19 19 19 18 17 17 17 17 16 17 19 16 15 15 16 17 17 17 18 18 19 19 19 19 18 18 18 18 19 20 20 20 20 21 21 21 21 21 21 22
21 20 19 18 20 20 20 19 19 19 19 19 18 18 20 19 18 18 18 18 18 18 19 19 20 20 21 21 21 21 21 21 21 22 22 22 22 22 22 22 23 24 24 24
23 22 21 20 20 21 22 21 21 21 20 21 21 20 22 22 21 20 20 20 20 20 21 21 22 22 23 23 24 24 24 25 25 24 25 24 24 24 24 24 24 25 25 26
25 25 25 25 24 24 25 24 24 24 23 23 23 24 24 24 24 23 23 23 23 23 23 24 25 25 25 26 26 26 27 28 28 27 27 27 27 26 26 27 27 27 27 27
27 28 28 28 27 27 27 26 26 27 27 27 26 27 27 27 27 26 26 26 26 26 26 27 27 28 28 28 28 29 29 29 30 30 30 30 29 29 28 28 29 29 29 30
29 30 29 29 29 29 30 28 29 29 29 28 28 29 29 30 29 29 28 28 28 28 28 29 29 30 30 30 30 31 31 32 32 33 33 33 32 32 32 31 31 31 32 32
30 31 31 31 31 32 31 31 31 31 31 31 31 31 31 31 31 30 30 31 31 30 31 31 31 31 31 32 32 32 33 33 33 34 35 34 34 35 35 34 33 33 34 34
31 31 32 32 33 34 34 34 33 33 34 34 34 33 33 32 33 33 32 32 32 31 31 32 33 33 33 33 34 34 34 35 34 34 36 36 36 37 37 37 36 36 36 36
32 32 33 33 33 33 34 34 33 34 36 35 35 35 34 33 34 35 34 33 33 33 33 33 34 34 34 34 35 35 36 36 36 36 37 37 37 38 39 39 38 39 38 37
33 33 33 34 34 34 35 35 34 35 36 35 35 35 35 34 35 35 35 35 35 35 35 35 36 36 36 36 36 37 36 36 36 38 38 38 38 39 39 39 39 39 39 39
34 34 34 34 34 35 35 36 36 36 36 36 36 36 36 36 36 36 36 36 36 36 37 37 38 38 38 38 39 39 38 38 38 38 39 39 39 39 39 39 38 38 39 40
34 34 34 34 35 35 36 37 37 37 37 37 37 36 36 37 37 36 36 37 37 37 38 39 39 39 40 40 41 40 40 40 39 39 39 39 39 40 40 40 40 40 40 40
33 34 34 35 35 36 36 36 37 37 37 37 37 37 37 37 37 37 37 38 38 38 38 39 39 39 39 40 41 41 41 40 40 39 39 39 40 40 40 40 40 40 40 40
32 33 33 33 33 33 33 34 35 36 36 37 37 37 37 37 37 38 38 38 39 39 38 39 39 39 39 40 40 41 41 41 41 40 40 40 40 41 40 40 40 39 39 39
30 31 31 32 32 33 33 34 34 35 35 36 36 36 37 37 38 38 38 39 39 39 39 39 39 40 40 40 40 40 40 40 41 40 40 39 39 39 39 40 39 39 38 37
Wind_Direction
215 214 215 216 216 219 218 216 232 253 264 270 275 282 300 317 332 344 349 348 345 338 341 326 317 335 350 6 9 197 173 177 191 195 186 182 183 189 190 194 189 188 190 196
217 220 224 224 224 226 227 228 237 251 262 263 269 278 284 295 298 308 318 321 316 304 304 297 288 299 297 289 287 283 265 247 233 230 225 215 208 205 209 206 201 205 208 217
221 227 230 233 231 233 238 240 241 250 261 264 269 279 279 286 285 288 297 303 303 298 298 301 294 289 292 284 282 282 273 261 259 255 249 244 230 222 220 216 219 229 237 248
228 231 233 235 237 240 247 248 248 252 257 262 265 264 273 279 283 282 281 282 290 291 293 292 288 284 283 281 282 277 271 266 262 261 256 252 243 231 228 227 233 243 251 259
235 234 237 237 238 242 246 251 255 256 255 258 265 264 268 273 274 275 272 270 276 278 283 284 283 278 276 277 277 273 268 265 263 264 261 257 247 240 237 237 243 249 254 261
236 236 238 239 240 243 247 253 259 261 258 260 261 261 262 265 267 267 267 267 268 271 277 278 279 277 275 274 273 272 269 266 264 265 265 260 254 249 246 246 251 253 255 261
237 239 240 241 243 243 246 250 260 264 263 265 265 263 258 259 258 263 265 265 266 271 275 275 274 272 273 272 272 272 271 269 266 267 265 263 262 258 253 251 253 257 262 264
241 242 242 242 241 242 244 243 245 250 257 266 271 267 264 261 258 260 263 261 262 268 273 274 273 271 271 272 272 271 272 270 264 264 263 264 262 261 258 256 257 262 267 269
240 243 243 243 240 239 241 241 242 249 252 254 258 265 271 269 264 260 262 262 263 266 268 269 269 269 271 274 273 270 271 269 264 262 261 261 260 261 259 260 262 265 267 270
240 243 244 240 240 239 239 240 242 244 252 257 264 268 270 270 263 260 263 264 264 267 266 267 268 270 272 274 276 275 272 268 266 264 263 264 262 263 262 263 267 268 268 270
241 245 246 243 238 239 240 242 245 247 248 254 261 265 266 271 267 265 263 264 265 266 266 266 269 272 273 274 274 274 274 271 267 264 264 268 269 268 268 268 269 270 270 272
242 244 247 250 248 243 244 244 247 250 255 257 261 263 266 269 270 268 265 265 267 267 268 269 270 272 273 272 272 272 272 271 268 266 268 269 269 271 270 269 270 273 275 277
242 243 247 252 255 251 250 251 250 250 256 260 262 267 272 272 272 268 266 266 267 267 269 269 269 271 272 271 271 272 271 271 269 267 269 271 271 272 272 271 272 274 275 276
244 244 243 245 251 256 255 255 256 255 258 263 263 263 269 272 272 270 268 266 267 267 267 267 267 270 271 271 271 272 272 272 271 269 268 269 270 270 271 271 273 275 276 276
244 246 246 246 249 253 254 255 257 257 258 263 266 268 269 272 272 269 269 268 267 268 268 268 268 269 270 271 272 273 274 272 272 270 268 268 270 271 271 272 273 275 276 277
247 248 248 250 252 254 253 254 256 259 262 265 268 270 270 272 272 271 269 268 267 267 269 269 268 268 269 269 270 272 275 274 272 269 267 267 267 268 271 273 273 274 275 276
250 251 252 254 255 255 256 256 258 261 263 266 268 269 270 272 271 271 270 269 269 268 268 269 269 269 269 269 269 271 272 272 271 269 267 267 268 269 271 274 273 274 275 276
253 254 255 256 258 257 258 259 260 263 264 265 266 267 269 272 271 271 270 269 269 269 269 268 268 266 267 267 268 269 271 271 271 270 268 269 268 270 272 275 275 275 275 275
253 254 256 258 260 262 261 262 262 263 265 265 266 267 269 270 271 271 270 270 269 269 268 268 267 266 267 267 267 269 270 270 270 270 269 270 270 271 272 273 274 273 274 274
254 256 258 259 259 260 262 263 264 265 266 266 266 267 269 269 269 270 271 270 270 269 269 269 268 268 269 269 269 270 270 270 270 270 270 270 271 270 271 271 272 271 271 272
256 257 258 259 260 260 262 264 264 264 266 268 268 268 269 269 269 270 271 270 269 268 267 267 267 268 270 270 270 270 270 270 271 270 269 269 270 270 270 270 270 269 269 270
256 258 259 259 260 260 263 264 264 265 266 267 268 269 269 270 270 270 270 269 268 267 266 266 267 269 270 271 270 270 270 271 270 270 269 269 270 270 270 271 271 270 269 270
256 257 258 258 259 261 263 264 265 266 267 268 269 270 271 272 272 271 271 270 269 267 265 265 267 269 270 271 271 270 271 271 272 271 270 271 271 270 270 271 272 271 271 269
259 259 259 259 260 262 264 265 266 267 268 269 270 271 272 273 273 272 273 272 271 270 267 266 267 268 269 270 271 271 271 271 272 272 273 272 271 271 271 272 271 271 270 269
259 260 260 261 262 263 263 264 265 266 268 270 270 271 272 273 273 273 272 272 271 269 269 267 267 267 268 269 271 272 273 273 273 273 273 273 273 272 272 271 271 270 269 268
260 260 261 262 262 263 264 265 266 267 268 269 271 272 273 273 273 273 273 272 270 270 270 269 268 268 268 269 270 271 272 272 272 271 272 272 273 273 272 270 270 269 269 268
Height
5917 5920 5921 5922 5923 5924 5925 5925 5925 5925 5924 5924 5924 5924 5924 5923 5922 5921 5920 5919 5918 5918 5917 5916 5916 5915 5914 5914 5913 5913 5912 5912 5912 5912 5912 5912 5913 5913 5914 5914 5914 5915 5915 5915
5916 5918 5919 5919 5921 5922 5923 5924 5924 5923 5922 5923 5923 5923 5923 5922 5922 5921 5920 5919 5918 5917 5917 5916 5915 5915 5914 5914 5914 5913 5912 5912 5912 5912 5912 5912 5912 5912 5913 5913 5914 5914 5914 5914
5914 5916 5916 5917 5918 5920 5921 5922 5922 5922 5921 5921 5922 5923 5922 5922 5921 5920 5919 5918 5918 5917 5916 5915 5915 5914 5914 5914 5913 5913 5912 5912 5912 5911 5911 5911 5911 5912 5912 5913 5913 5913 5913 5913
5910 5912 5913 5914 5916 5917 5918 5918 5919 5919 5920 5921 5921 5923 5921 5920 5919 5918 5918 5917 5917 5916 5916 5915 5914 5914 5913 5913 5913 5913 5912 5912 5911 5911 5911 5911 5911 5911 5911 5912 5912 5912 5912 5912
5907 5909 5910 5911 5913 5914 5915 5915 5916 5916 5917 5918 5919 5920 5921 5918 5917 5917 5916 5915 5915 5915 5915 5914 5913 5913 5913 5912 5912 5911 5911 5911 5910 5910 5910 5910 5910 5910 5910 5910 5911 5911 5911 5911
5904 5905 5906 5908 5909 5910 5911 5912 5913 5914 5915 5916 5916 5917 5917 5916 5915 5914 5914 5913 5913 5913 5913 5912 5912 5911 5911 5911 5910 5910 5910 5909 5909 5908 5908 5908 5908 5908 5909 5909 5909 5909 5909 5909
5900 5901 5903 5904 5906 5907 5909 5911 5913 5913 5914 5914 5913 5912 5913 5912 5911 5911 5911 5911 5911 5911 5910 5910 5910 5909 5909 5908 5908 5908 5908 5907 5907 5906 5906 5906 5906 5906 5906 5907 5907 5907 5907 5906
5897 5899 5899 5900 5902 5903 5905 5908 5910 5912 5913 5912 5909 5909 5910 5908 5908 5908 5908 5908 5908 5908 5908 5907 5907 5907 5906 5906 5905 5905 5905 5904 5903 5904 5904 5904 5904 5904 5904 5904 5904 5904 5904 5904
5894 5895 5895 5896 5897 5899 5901 5903 5905 5907 5906 5907 5907 5906 5905 5905 5905 5905 5904 5905 5904 5905 5905 5904 5904 5904 5903 5903 5902 5902 5901 5901 5900 5901 5901 5900 5900 5901 5901 5901 5901 5901 5900 5900
5889 5891 5890 5891 5893 5895 5897 5898 5900 5902 5902 5903 5904 5903 5903 5901 5901 5901 5901 5901 5901 5901 5901 5901 5900 5900 5900 5899 5899 5898 5898 5898 5897 5897 5897 5897 5897 5897 5897 5897 5897 5897 5896 5896
5885 5886 5887 5887 5888 5890 5892 5893 5895 5896 5898 5899 5901 5903 5898 5897 5897 5897 5897 5896 5896 5896 5896 5896 5896 5896 5896 5895 5895 5895 5894 5894 5894 5894 5893 5893 5893 5892 5892 5892 5892 5892 5892 5891
5879 5882 5883 5883 5884 5885 5887 5888 5890 5892 5892 5893 5895 5898 5892 5892 5892 5892 5892 5892 5892 5892 5892 5892 5891 5891 5891 5891 5891 5890 5890 5889 5889 5889 5889 5889 5889 5888 5888 5887 5887 5887 5887 5887
5874 5876 5878 5879 5881 5881 5881 5883 5884 5886 5887 5887 5889 5893 5887 5887 5887 5887 5886 5886 5886 5886 5886 5886 5886 5886 5886 5886 5885 5885 5885 5884 5884 5884 5884 5884 5884 5883 5883 5882 5882 5882 5881 5881
5868 5871 5874 5877 5876 5876 5876 5877 5878 5880 5882 5882 5883 5884 5882 5880 5881 5881 5880 5881 5881 5881 5881 5881 5880 5880 5880 5880 5880 5879 5879 5878 5878 5878 5878 5878 5878 5877 5877 5877 5876 5876 5875 5875
5862 5864 5866 5868 5869 5870 5870 5871 5872 5873 5874 5876 5876 5876 5875 5874 5874 5874 5874 5874 5875 5875 5875 5875 5874 5874 5874 5874 5873 5873 5872 5871 5871 5871 5871 5871 5871 5871 5870 5870 5870 5869 5869 5868
5855 5857 5859 5860 5861 5862 5863 5864 5865 5866 5866 5867 5867 5868 5867 5866 5867 5866 5867 5867 5867 5867 5868 5867 5867 5867 5867 5866 5866 5865 5865 5864 5863 5863 5863 5863 5863 5863 5863 5863 5862 5862 5861 5861
5847 5849 5851 5853 5854 5854 5855 5857 5858 5858 5858 5859 5859 5860 5859 5859 5859 5859 5859 5859 5859 5859 5860 5860 5859 5859 5858 5858 5858 5857 5856 5856 5855 5855 5854 5854 5855 5855 5855 5854 5854 5854 5853 5852
5840 5841 5843 5845 5846 5846 5850 5848 5849 5850 5850 5850 5850 5850 5850 5850 5850 5850 5850 5850 5850 5851 5851 5851 5851 5851 5850 5849 5849 5848 5848 5847 5846 5845 5845 5845 5845 5845 5845 5845 5845 5844 5844 5843
5831 5832 5834 5836 5836 5837 5838 5839 5840 5840 5840 5841 5841 5841 5841 5841 5841 5841 5841 5841 5841 5841 5841 5841 5841 5841 5841 5841 5840 5839 5838 5837 5837 5836 5836 5836 5836 5836 5836 5835 5835 5834 5833 5833
5822 5823 5825 5826 5827 5828 5830 5829 5829 5831 5830 5830 5831 5831 5832 5832 5832 5831 5831 5831 5831 5831 5831 5831 5831 5831 5831 5831 5830 5830 5829 5828 5828 5827 5826 5826 5825 5825 5825 5824 5823 5823 5822 5822
5812 5814 5815 5816 5816 5818 5819 5819 5820 5822 5821 5820 5820 5821 5821 5821 5822 5821 5821 5821 5821 5821 5821 5821 5821 5821 5820 5820 5820 5819 5819 5818 5817 5816 5816 5815 5815 5814 5814 5813 5812 5811 5811 5810
5803 5804 5805 5806 5807 5810 5808 5808 5809 5810 5809 5810 5810 5810 5810 5811 5811 5810 5810 5810 5810 5810 5810 5810 5810 5810 5809 5809 5809 5808 5808 5807 5806 5805 5805 5804 5804 5803 5802 5802 5801 5800 5799 5799
5792 5795 5795 5797 5798 5797 5797 5797 5797 5798 5798 5798 5799 5799 5799 5799 5799 5799 5799 5799 5799 5799 5799 5799 5799 5798 5798 5797 5797 5797 5796 5796 5794 5794 5793 5793 5792 5792 5791 5790 5789 5788 5788 5787
5782 5783 5784 5785 5786 5786 5786 5786 5786 5787 5787 5787 5788 5788 5788 5788 5788 5788 5788 5788 5787 5787 5787 5787 5787 5786 5786 5785 5785 5784 5784 5783 5782 5781 5781 5781 5780 5779 5779 5778 5777 5776 5776 5775
5772 5773 5773 5774 5775 5775 5775 5776 5776 5776 5776 5776 5777 5777 5777 5777 5776 5776 5776 5776 5775 5775 5775 5774 5774 5774 5774 5774 5773 5772 5772 5771 5770 5770 5769 5768 5768 5767 5766 5765 5765 5764 5764 5763
5762 5763 5763 5764 5765 5765 5765 5765 5766 5766 5766 5766 5766 5766 5765 5765 5765 5764 5764 5763 5763 5763 5762 5762 5762 5762 5761 5761 5761 5760 5759 5759 5758 5758 5757 5756 5755 5754 5754 5753 5752 5752 5752 5752